Regional Weather Roundup
Issued by NWS

Home | Current Version | Previous Version | Graphics & Text | Print | Product List | Glossary On
Versions: 1 2 3 4 5 6 7 8 9 10 11 12 13 14 15 16 17 18 19 20 21 22 23 24 25 26 27 28 29 30 31 32 33 34 35 36 37 38 39 40 41 42 43 44 45 46 47 48 49 50
000
ASUS43 KBIS 120302
RWRND

NORTH DAKOTA REGIONAL WEATHER ROUNDUP
NATIONAL WEATHER SERVICE BISMARCK ND
900 PM CST MON DEC 11 2017

NOTE: "FAIR" INDICATES FEW OR NO CLOUDS BELOW 12,000 FEET WITH NO
SIGNIFICANT WEATHER AND/OR OBSTRUCTIONS TO VISIBILITY.


NDZ001>003-009>011-017-120400-
NORTHWEST NORTH DAKOTA

CITY           SKY/WX    TMP DP  RH WIND       PRES   REMARKS
WILLISTON        N/A    N/A N/A N/A MISG      30.33S
MINOT          MOCLDY    22  19  89 SW7       30.29F WCI  13
MINOT AFB      MOCLDY    16  14  90 W7        30.27F WCI   6
$$

NDZ018>021-031>035-040>046-120400-
SOUTHWEST NORTH DAKOTA

CITY           SKY/WX    TMP DP  RH WIND       PRES   REMARKS
BISMARCK       PTCLDY    21  16  81 SW3       30.34F
DICKINSON      CLOUDY    34  30  85 W8        30.31S
GARRISON         N/A     29  25  85 W7        30.30F
HETTINGER ARPT CLOUDY    35  25  66 NW13      30.35S
$$

NDZ004>008-012>016-024-026-027-054-120400-
NORTHEAST NORTH DAKOTA

CITY           SKY/WX    TMP DP  RH WIND       PRES   REMARKS
GRAND FORKS    CLOUDY     4   2  91 W5        30.34F WCI  -5
GRND FRKS AFB  CLEAR      6   2  86 W3        30.34F
DEVILS LAKE    CLEAR     13  11  92 SW6       30.30F WCI   4
$$

NDZ022-023-025-028>030-036>039-047>053-120400-
SOUTHEAST NORTH DAKOTA

CITY           SKY/WX    TMP DP  RH WIND       PRES   REMARKS
FARGO          CLOUDY     8   4  83 NW7       30.36S WCI  -3
JAMESTOWN      CLEAR     15  11  83 NW5       30.31F WCI   8
$$





USA.gov is the U.S. government's official web portal to all federal, state and local government web resources and services.